{"data":{"norad_id":47798,"intl_designator":"2021-018M","name":"STARLINK-2379","alt_names":[],"object_type":"PAYLOAD","status":"ACTIVE","operator":null,"country":"US","launch_date":"2021-03-11","launch_site_code":"AFETR","launch_vehicle":null,"mission":null,"orbit_class":"UNKNOWN","rcs_meters":null,"size_class":null,"mass_kg":null,"dimensions":null,"purposes":["comms"],"wikipedia_slug":null,"has_3d_model":false,"image_url":null,"decayed_at":null,"tle_current":{"epoch":"2026-09-20T01:11:01.876992Z","epoch_age_seconds":57231,"freshness":"FRESH","line1":"1 47798U 21018M   26263.04932728 -.00001058  00000+0 -22322-4 0  9991","line2":"2 47798  53.1612  54.6299 0001180  70.6570 289.4559 15.31697403306544","mean_motion":15.31697403,"eccentricity":0.000118,"inclination_deg":53.1612,"raan_deg":54.6299,"arg_perigee_deg":70.657,"mean_anomaly_deg":289.4559,"bstar":-2.2322e-5,"rev_number":30654,"period_min":94.013347360882,"perigee_km":469.93956835951,"apogee_km":471.55590515739,"semimajor_km":6848.8847367584,"source":"CELESTRAK","updated_at":"2026-09-20T09:00:38.606146Z"}}}